Temp
-4 -5 -5 -5 -4 -3 -5 -5 -4 -4 -5 -5 -5 -4 -4 -4 -5 -5 -5 -5 -5 -5 -6 -6 -6 -6 -6 -5 -5 -6 -5 -5 -6 -6 -6 -6 -7 -7 -7 -7 -7 -7 -8 -7 -8 -7 -7 -7 -7
-5 -4 -5 -5 -4 -5 -4 -5 -4 -4 -4 -5 -5 -5 -4 -4 -4 -4 -5 -5 -5 -5 -5 -6 -6 -6 -5 -5 -5 -5 -5 -5 -6 -6 -6 -6 -7 -7 -7 -7 -7 -7 -7 -7 -7 -7 -7 -7 -7
-4 -4 -5 -5 -6 -6 -6 -5 -4 -4 -4 -5 -5 -5 -4 -5 -4 -4 -4 -5 -5 -5 -5 -5 -6 -6 -5 -5 -6 -5 -5 -5 -5 -6 -6 -6 -7 -7 -7 -7 -7 -7 -7 -7 -7 -7 -7 -7 -7
-4 -4 -5 -6 -6 -6 -5 -6 -4 -4 -4 -4 -4 -5 -5 -5 -5 -4 -4 -4 -5 -5 -5 -5 -5 -6 -5 -5 -5 -6 -6 -5 -5 -6 -6 -6 -6 -7 -7 -7 -7 -7 -7 -7 -7 -7 -7 -7 -7
-5 -4 -6 -5 -5 -5 -5 -5 -4 -5 -4 -4 -4 -5 -5 -5 -5 -5 -4 -4 -4 -5 -5 -5 -5 -6 -6 -5 -5 -5 -6 -5 -6 -6 -6 -6 -6 -6 -7 -7 -7 -7 -7 -7 -7 -7 -7 -7 -7
-5 -5 -5 -7 -6 -5 -5 -5 -4 -5 -4 -5 -4 -4 -4 -5 -5 -5 -4 -4 -4 -5 -5 -5 -5 -5 -6 -5 -5 -5 -5 -5 -5 -6 -6 -6 -6 -6 -7 -7 -7 -7 -7 -7 -7 -7 -7 -6 -7
-5 -6 -6 -6 -6 -4 -5 -5 -4 -4 -5 -4 -5 -4 -4 -5 -5 -5 -5 -4 -4 -5 -5 -5 -5 -6 -6 -5 -5 -5 -5 -5 -6 -6 -6 -6 -6 -6 -7 -7 -7 -7 -7 -7 -7 -7 -7 -7 -6
-6 -6 -7 -8 -7 -5 -7 -5 -5 -6 -5 -6 -4 -4 -4 -5 -5 -5 -5 -5 -4 -5 -5 -5 -5 -5 -5 -5 -5 -5 -5 -5 -6 -6 -6 -6 -6 -7 -6 -7 -7 -7 -7 -7 -7 -7 -7 -6 -6
-6 -7 -7 -7 -8 -5 -5 -7 -5 -5 -6 -7 -5 -5 -5 -5 -5 -5 -5 -5 -5 -5 -5 -5 -6 -5 -6 -6 -6 -5 -5 -5 -6 -6 -6 -6 -6 -6 -6 -6 -7 -7 -7 -7 -7 -7 -7 -7 -7
-7 -7 -6 -6 -8 -8 -6 -6 -6 -5 -7 -6 -6 -5 -6 -5 -5 -5 -5 -5 -5 -5 -5 -6 -6 -6 -6 -6 -6 -6 -6 -6 -6 -6 -6 -6 -6 -6 -6 -6 -6 -6 -6 -7 -7 -6 -6 -6 -7
-8 -8 -7 -6 -6 -5 -7 -8 -7 -6 -5 -7 -5 -6 -6 -5 -5 -5 -5 -5 -5 -5 -5 -6 -6 -6 -6 -6 -6 -6 -6 -6 -6 -7 -6 -6 -6 -6 -6 -6 -6 -7 -6 -6 -6 -6 -7 -6 -6
-8 -7 -6 -6 -6 -5 -6 -6 -8 -8 -6 -6 -5 -6 -5 -5 -5 -5 -5 -5 -6 -5 -5 -5 -6 -5 -6 -6 -6 -6 -6 -6 -6 -6 -6 -7 -5 -6 -6 -6 -6 -6 -6 -6 -6 -6 -7 -6 -7
-8 -8 -8 -7 -8 -7 -6 -7 -8 -8 -7 -6 -6 -5 -5 -5 -5 -5 -5 -5 -6 -6 -5 -5 -5 -6 -5 -5 -6 -6 -6 -6 -6 -6 -6 -4 -6 -6 -6 -6 -6 -6 -6 -6 -6 -6 -6 -6 -7
-8 -7 -8 -8 -8 -8 -7 -7 -8 -8 -7 -7 -6 -5 -5 -5 -5 -6 -5 -6 -6 -6 -6 -6 -6 -5 -5 -5 -6 -6 -6 -5 -6 -6 -6 -5 -6 -5 -6 -6 -6 -6 -6 -6 -6 -6 -6 -6 -6
-6 -7 -8 -8 -8 -7 -7 -7 -8 -8 -7 -6 -6 -6 -5 -6 -5 -6 -6 -6 -6 -6 -6 -6 -6 -6 -6 -6 -6 -6 -6 -6 -6 -6 -6 -6 -5 -5 -6 -6 -6 -6 -6 -6 -5 -6 -6 -6 -6
-6 -7 -8 -8 -7 -7 -7 -8 -7 -8 -7 -7 -7 -6 -6 -5 -5 -6 -7 -6 -7 -6 -6 -6 -6 -6 -6 -6 -6 -6 -6 -6 -5 -6 -6 -6 -5 -5 -5 -5 -6 -6 -6 -5 -6 -6 -6 -6 -6
-8 -7 -7 -7 -7 -7 -8 -8 -8 -7 -7 -7 -6 -5 -7 -8 -6 -6 -6 -6 -6 -6 -6 -6 -6 -6 -6 -6 -6 -6 -6 -6 -6 -6 -6 -5 -5 -6 -5 -6 -6 -5 -6 -6 -6 -6 -6 -6 -6
-7 -7 -7 -7 -8 -7 -8 -8 -7 -7 -7 -7 -7 -6 -6 -7 -7 -7 -5 -6 -7 -7 -5 -5 -6 -7 -7 -7 -6 -6 -6 -6 -6 -6 -6 -6 -6 -6 -6 -6 -5 -5 -5 -6 -6 -6 -6 -6 -5
-8 -7 -7 -7 -8 -7 -8 -8 -8 -7 -7 -7 -7 -7 -7 -7 -7 -6 -5 -6 -7 -5 -8 -6 -6 -7 -7 -7 -7 -7 -6 -6 -6 -6 -5 -5 -6 -6 -7 -6 -6 -5 -5 -5 -5 -5 -6 -5 -6
-7 -7 -7 -7 -7 -7 -8 -8 -8 -7 -7 -8 -7 -6 -6 -7 -7 -7 -7 -7 -8 -7 -7 -6 -7 -7 -7 -7 -7 -7 -6 -6 -6 -6 -6 -5 -6 -6 -7 -6 -6 -5 -5 -5 -5 -5 -6 -6 -5
-6 -7 -7 -7 -7 -7 -7 -7 -8 -8 -8 -8 -7 -7 -6 -7 -7 -7 -7 -7 -6 -7 -7 -7 -7 -8 -8 -7 -8 -7 -7 -6 -6 -6 -5 -5 -5 -5 -5 -6 -6 -6 -5 -5 -5 -5 -5 -5 -5
-7 -7 -7 -7 -7 -7 -8 -7 -8 -8 -8 -7 -8 -8 -7 -6 -7 -7 -7 -7 -7 -6 -7 -7 -7 -8 -8 -8 -7 -7 -8 -7 -6 -6 -5 -5 -5 -4 -4 -5 -6 -6 -6 -6 -6 -6 -5 -5 -6
-8 -7 -7 -8 -7 -7 -7 -7 -8 -8 -8 -7 -9 -7 -7 -6 -7 -7 -7 -7 -7 -7 -7 -7 -7 -8 -8 -8 -8 -7 -7 -7 -7 -6 -5 -6 -5 -4 -5 -5 -5 -6 -6 -6 -6 -6 -5 -5 -5
-8 -7 -7 -7 -7 -7 -7 -7 -7 -7 -6 -7 -7 -7 -6 -6 -7 -7 -7 -7 -7 -7 -7 -7 -7 -7 -8 -8 -8 -8 -7 -7 -6 -6 -6 -6 -6 -6 -6 -6 -6 -6 -6 -5 -5 -6 -6 -5 -5
-7 -7 -7 -6 -6 -6 -7 -7 -6 -6 -6 -8 -7 -6 -6 -6 -6 -7 -7 -7 -7 -7 -7 -7 -7 -8 -8 -8 -8 -8 -7 -6 -5 -5 -6 -5 -6 -6 -7 -7 -7 -6 -5 -6 -6 -6 -5 -5 -6
-7 -7 -6 -6 -7 -6 -6 -7 -8 -7 -7 -7 -7 -6 -6 -6 -6 -6 -7 -7 -7 -7 -8 -8 -8 -8 -8 -8 -7 -7 -7 -6 -4 -4 -4 -6 -5 -5 -5 -7 -7 -6 -5 -5 -6 -6 -5 -6 -5
-7 -7 -7 -7 -6 -5 -7 -7 -7 -7 -8 -7 -7 -6 -5 -5 -5 -6 -7 -7 -7 -7 -7 -8 -8 -8 -8 -8 -7 -7 -7 -5 -4 -5 -4 -5 -6 -5 -6 -7 -7 -6 -6 -6 -6 -6 -5 -5 -5
-8 -7 -7 -6 -6 -6 -7 -7 -6 -7 -7 -7 -7 -6 -5 -5 -6 -6 -6 -7 -7 -7 -7 -7 -8 -8 -8 -8 -7 -7 -6 -5 -4 -5 -6 -5 -6 -6 -6 -7 -7 -6 -6 -6 -6 -6 -6 -6 -6
-7 -6 -7 -7 -6 -6 -7 -7 -7 -7 -6 -6 -7 -7 -6 -5 -6 -6 -6 -6 -7 -7 -7 -8 -8 -8 -8 -8 -7 -7 -6 -6 -6 -6 -5 -6 -6 -6 -7 -7 -7 -7 -7 -6 -6 -6 -6 -7 -7
-7 -7 -6 -7 -7 -8 -7 -7 -7 -8 -8 -6 -7 -7 -7 -6 -5 -6 -6 -6 -7 -7 -7 -8 -8 -8 -8 -8 -8 -7 -7 -7 -6 -7 -6 -6 -6 -6 -8 -8 -7 -7 -7 -7 -6 -6 -6 -7 -7
Height
5923 5922 5921 5920 5920 5913 5912 5916 5915 5918 5918 5915 5911 5913 5912 5912 5909 5910 5909 5910 5910 5909 5909 5910 5910 5910 5910 5910 5910 5910 5910 5909 5908 5907 5907 5907 5907 5906 5906 5906 5905 5905 5906 5906 5906 5907 5908 5909 5909
5925 5924 5923 5923 5919 5919 5918 5919 5920 5919 5919 5917 5914 5913 5909 5913 5912 5912 5910 5911 5912 5911 5911 5912 5912 5912 5911 5911 5911 5911 5911 5910 5909 5908 5908 5907 5907 5906 5907 5906 5906 5906 5907 5907 5907 5908 5909 5911 5911
5926 5926 5926 5922 5919 5924 5922 5923 5922 5920 5919 5919 5918 5914 5914 5914 5912 5911 5911 5912 5913 5912 5912 5913 5913 5913 5913 5913 5912 5912 5912 5912 5911 5910 5909 5908 5908 5908 5907 5907 5907 5907 5908 5908 5907 5908 5910 5912 5913
5926 5926 5925 5924 5925 5926 5924 5924 5923 5921 5919 5919 5917 5917 5916 5914 5913 5912 5912 5912 5913 5913 5913 5914 5914 5914 5914 5914 5914 5913 5913 5913 5912 5910 5911 5911 5910 5910 5910 5909 5908 5907 5908 5908 5908 5908 5909 5912 5913
5927 5927 5928 5928 5928 5926 5926 5925 5923 5922 5922 5919 5919 5917 5916 5915 5915 5914 5913 5913 5913 5913 5914 5914 5914 5915 5915 5915 5915 5913 5914 5914 5912 5912 5913 5913 5912 5911 5910 5910 5910 5909 5908 5909 5910 5910 5910 5911 5913
5927 5927 5932 5932 5926 5927 5926 5926 5924 5925 5924 5920 5918 5919 5918 5916 5916 5916 5915 5914 5913 5913 5914 5914 5915 5916 5916 5915 5915 5915 5914 5914 5913 5914 5914 5913 5912 5911 5911 5910 5911 5911 5909 5909 5910 5911 5911 5912 5913
5927 5930 5937 5933 5927 5928 5928 5928 5926 5926 5922 5921 5921 5921 5920 5918 5917 5917 5916 5914 5915 5914 5915 5915 5915 5916 5917 5917 5916 5916 5916 5914 5916 5915 5912 5914 5913 5912 5910 5910 5909 5911 5911 5910 5911 5912 5912 5912 5913
5931 5930 5936 5935 5931 5929 5929 5928 5925 5923 5923 5921 5921 5923 5920 5919 5917 5917 5916 5915 5913 5915 5915 5916 5916 5916 5918 5918 5918 5918 5917 5915 5917 5914 5914 5913 5914 5913 5912 5911 5911 5911 5912 5910 5912 5914 5914 5913 5913
5931 5933 5935 5934 5932 5930 5930 5931 5923 5927 5920 5923 5918 5918 5919 5918 5917 5916 5916 5915 5913 5914 5915 5915 5916 5917 5917 5918 5918 5918 5917 5916 5917 5914 5915 5915 5914 5913 5910 5912 5911 5912 5913 5912 5912 5914 5916 5915 5915
5933 5933 5934 5932 5933 5933 5931 5930 5921 5925 5920 5922 5922 5916 5917 5917 5916 5916 5915 5915 5914 5914 5914 5914 5916 5916 5917 5917 5918 5918 5918 5917 5917 5914 5915 5915 5913 5907 5911 5913 5913 5914 5914 5913 5912 5914 5916 5915 5915
5934 5934 5934 5933 5932 5932 5932 5932 5930 5926 5924 5923 5920 5918 5917 5916 5915 5915 5914 5914 5914 5914 5914 5914 5914 5915 5916 5917 5918 5918 5918 5917 5917 5914 5915 5913 5912 5884 5906 5912 5912 5914 5914 5913 5913 5915 5916 5915 5915
5935 5936 5934 5933 5933 5932 5932 5931 5934 5929 5925 5923 5921 5920 5919 5917 5915 5914 5913 5913 5913 5914 5914 5913 5913 5914 5915 5916 5917 5918 5918 5916 5915 5913 5914 5914 5913 5913 5912 5912 5914 5913 5915 5914 5913 5915 5916 5916 5916
5935 5939 5936 5935 5933 5932 5931 5931 5931 5929 5927 5924 5922 5921 5920 5917 5915 5913 5912 5912 5912 5912 5912 5913 5913 5913 5914 5915 5916 5917 5916 5916 5917 5916 5914 5918 5917 5917 5916 5915 5913 5913 5913 5914 5915 5915 5915 5916 5916
5935 5935 5938 5937 5938 5936 5934 5931 5931 5929 5928 5926 5921 5919 5918 5916 5914 5913 5912 5912 5911 5912 5912 5912 5913 5913 5913 5914 5915 5915 5915 5917 5920 5919 5917 5914 5916 5916 5914 5914 5913 5912 5911 5913 5914 5915 5914 5915 5916
5935 5935 5938 5938 5937 5935 5934 5931 5933 5929 5928 5925 5922 5919 5916 5915 5914 5912 5911 5910 5910 5909 5909 5909 5910 5912 5912 5912 5913 5913 5912 5916 5917 5915 5917 5913 5917 5918 5917 5915 5914 5914 5914 5912 5913 5915 5912 5915 5915
5936 5937 5940 5939 5937 5935 5935 5933 5931 5930 5927 5926 5922 5919 5915 5914 5912 5903 5905 5908 5909 5908 5907 5907 5907 5908 5910 5911 5912 5912 5911 5911 5914 5916 5914 5914 5917 5918 5917 5915 5915 5915 5913 5914 5913 5913 5914 5914 5915
5937 5941 5942 5942 5936 5935 5936 5936 5931 5931 5929 5927 5923 5921 5916 5912 5913 5910 5907 5906 5906 5904 5904 5904 5904 5906 5907 5909 5909 5910 5912 5912 5912 5913 5913 5916 5917 5914 5913 5917 5917 5915 5914 5914 5913 5913 5912 5913 5913
5936 5941 5941 5941 5939 5935 5936 5937 5931 5931 5930 5926 5923 5920 5916 5905 5909 5909 5906 5905 5903 5902 5903 5900 5901 5902 5904 5905 5906 5908 5909 5911 5912 5912 5913 5914 5911 5913 5913 5909 5915 5916 5916 5914 5914 5914 5913 5913 5913
5936 5938 5939 5940 5936 5935 5935 5938 5934 5931 5930 5926 5923 5921 5915 5911 5911 5908 5900 5899 5886 5888 5889 5887 5898 5899 5900 5902 5903 5904 5906 5907 5908 5910 5910 5911 5908 5911 5914 5909 5913 5913 5914 5914 5915 5915 5914 5913 5913
5934 5936 5939 5941 5936 5934 5933 5936 5933 5932 5929 5926 5923 5921 5919 5916 5909 5907 5905 5904 5902 5901 5901 5896 5897 5898 5899 5900 5901 5901 5902 5902 5903 5905 5907 5908 5908 5906 5907 5912 5914 5914 5913 5914 5916 5916 5916 5915 5915
5932 5935 5939 5940 5935 5934 5933 5931 5925 5919 5916 5923 5922 5919 5917 5914 5911 5908 5905 5902 5903 5902 5898 5897 5897 5898 5898 5898 5898 5897 5897 5897 5898 5899 5901 5904 5906 5905 5908 5908 5907 5912 5913 5913 5913 5914 5915 5914 5914
5933 5936 5934 5932 5932 5932 5925 5931 5924 5918 5920 5921 5921 5919 5915 5913 5911 5909 5906 5904 5902 5899 5900 5900 5900 5898 5896 5894 5894 5894 5893 5892 5892 5893 5895 5898 5896 5865 5898 5907 5908 5906 5910 5911 5910 5911 5912 5913 5912
5930 5930 5928 5928 5930 5931 5926 5928 5922 5922 5925 5922 5920 5918 5915 5914 5912 5910 5908 5905 5904 5902 5900 5899 5898 5897 5895 5892 5890 5886 5888 5887 5886 5888 5890 5895 5894 5895 5900 5904 5905 5902 5906 5908 5908 5909 5909 5910 5910
5924 5925 5926 5926 5929 5930 5921 5921 5920 5919 5922 5914 5920 5918 5915 5915 5913 5910 5908 5906 5904 5902 5901 5898 5897 5896 5894 5890 5889 5887 5884 5882 5880 5880 5882 5884 5887 5888 5891 5896 5896 5900 5903 5904 5905 5906 5906 5907 5907
5923 5924 5927 5930 5931 5931 5927 5921 5918 5918 5919 5918 5917 5917 5916 5915 5914 5911 5908 5907 5905 5903 5900 5897 5895 5892 5890 5887 5885 5882 5881 5877 5872 5872 5872 5855 5875 5886 5889 5888 5895 5898 5898 5900 5901 5901 5903 5903 5904
5923 5926 5929 5927 5927 5920 5924 5908 5911 5916 5918 5919 5917 5916 5916 5915 5913 5911 5908 5906 5904 5902 5899 5896 5894 5891 5887 5884 5881 5877 5873 5868 5862 5864 5867 5866 5866 5875 5873 5886 5885 5893 5894 5896 5896 5897 5898 5898 5899
5920 5922 5927 5924 5924 5926 5920 5915 5901 5906 5917 5918 5915 5915 5915 5913 5911 5909 5907 5905 5903 5901 5898 5896 5892 5889 5886 5881 5878 5874 5867 5859 5853 5854 5858 5862 5865 5875 5855 5872 5875 5886 5888 5890 5891 5891 5892 5892 5893
5918 5921 5923 5926 5921 5918 5917 5914 5911 5907 5915 5915 5914 5911 5913 5912 5910 5908 5905 5902 5901 5899 5897 5894 5891 5888 5884 5880 5875 5871 5864 5855 5845 5844 5852 5853 5858 5864 5866 5869 5875 5880 5883 5884 5886 5887 5887 5888 5889
5919 5918 5921 5923 5917 5913 5909 5906 5904 5910 5912 5913 5912 5910 5909 5909 5909 5907 5904 5901 5899 5897 5895 5892 5889 5886 5883 5878 5873 5868 5863 5857 5851 5848 5847 5852 5856 5859 5863 5867 5872 5874 5877 5879 5881 5881 5881 5882 5883
5917 5917 5918 5918 5910 5910 5912 5907 5906 5908 5911 5912 5908 5910 5908 5906 5906 5904 5901 5899 5897 5895 5892 5889 5886 5883 5880 5876 5871 5867 5863 5858 5854 5852 5851 5850 5854 5854 5853 5862 5867 5870 5873 5874 5874 5875 5876 5876 5876
Wind_Speed
13 9 9 13 7 11 18 12 8 9 8 8 7 11 13 9 5 6 3 3 5 8 8 8 9 9 9 8 6 6 7 6 5 7 8 9 7 5 5 6 5 4 4 5 6 5 5 6 8
11 7 9 7 21 19 9 9 12 11 9 12 7 6 3 6 5 3 2 3 2 6 7 6 7 7 6 7 7 5 5 4 3 4 7 7 7 5 5 4 4 3 3 2 4 5 4 3 3
5 7 9 14 17 10 13 8 11 7 6 8 6 8 9 7 5 4 3 3 1 3 5 6 6 6 6 5 4 3 4 3 3 4 5 5 7 6 4 3 3 3 4 3 3 4 4 3 1
4 10 15 21 7 10 13 12 6 8 7 9 6 8 7 6 5 5 3 4 3 3 2 3 4 4 6 5 4 4 4 4 3 3 4 5 6 6 4 3 3 4 5 5 5 4 5 4 3
8 5 18 9 7 3 12 11 14 8 7 7 6 7 6 3 4 4 1 4 4 5 4 3 2 2 2 3 3 4 3 3 3 3 5 5 3 4 4 3 4 5 7 6 5 6 5 5 4
2 23 11 12 5 6 5 9 5 13 7 4 6 6 6 4 3 4 4 2 2 4 5 5 4 2 1 2 4 5 3 3 2 4 4 3 2 2 3 3 3 4 6 8 5 4 5 6 4
13 19 7 9 7 6 6 9 6 9 12 7 7 8 5 5 4 5 6 4 3 2 3 5 5 4 2 1 4 5 2 2 4 2 1 2 1 1 3 1 5 3 5 8 5 4 4 4 4
18 20 1 2 9 8 8 13 10 8 7 10 2 6 5 4 4 5 5 6 6 2 3 5 5 6 3 1 3 5 1 1 5 3 2 4 3 5 6 2 2 1 1 5 6 1 2 4 5
16 16 6 6 7 11 13 9 13 9 6 6 8 6 4 4 6 7 7 6 6 3 2 4 4 3 4 2 2 4 3 3 3 7 6 6 7 8 17 6 5 1 1 3 4 3 1 3 4
9 5 4 6 1 10 13 12 14 12 8 20 9 10 5 5 6 7 8 7 7 4 2 2 5 4 4 4 1 2 3 4 5 11 3 3 7 12 5 8 6 3 2 2 3 1 1 2 2
4 2 5 3 6 7 7 8 10 15 16 17 15 13 10 6 6 8 8 7 8 7 4 5 5 6 5 6 4 3 2 3 3 4 1 6 9 21 10 6 4 3 3 3 2 2 2 1 1
8 1 4 4 5 6 9 4 7 11 14 16 15 13 12 11 7 6 8 7 7 8 9 7 6 6 6 5 7 4 3 3 4 4 4 6 8 6 3 2 3 3 2 1 3 2 2 2 2
9 2 4 8 10 10 14 11 13 9 16 16 17 16 15 14 11 7 8 8 7 9 11 11 9 7 6 7 7 6 6 5 5 5 4 5 5 3 1 2 6 3 5 5 4 2 2 2 3
9 8 2 5 4 5 8 14 13 13 15 16 19 20 16 17 16 12 9 10 8 9 12 10 11 10 7 7 7 10 11 4 8 6 6 2 5 7 6 3 2 3 1 3 1 3 1 0 2
7 6 4 7 6 6 3 9 5 20 17 19 20 20 20 18 16 15 10 9 10 11 10 11 13 12 10 8 9 10 14 11 7 7 9 4 5 5 6 9 5 4 1 1 2 3 3 2 1
8 16 4 7 15 6 3 13 14 17 16 18 22 22 22 19 14 19 12 10 10 10 11 10 12 12 11 12 10 12 13 14 11 9 8 6 7 7 6 6 6 3 3 3 4 2 3 5 3
5 8 5 7 19 6 3 10 21 16 15 17 19 21 18 20 15 12 12 12 10 11 13 12 10 11 13 14 12 14 14 12 12 12 12 8 6 7 7 7 6 6 5 5 5 3 4 2 3
19 8 6 4 9 13 5 6 17 14 15 16 17 23 25 27 23 18 14 14 6 12 15 13 11 10 11 13 14 15 15 14 13 13 13 13 13 10 6 6 7 5 5 4 5 3 4 6 2
9 10 9 6 18 8 3 3 14 17 12 10 16 23 26 26 21 28 19 16 32 16 24 8 11 11 9 11 12 14 16 15 16 17 14 15 17 13 8 7 10 8 6 5 6 5 4 6 4
16 13 4 8 22 9 1 4 11 14 11 10 13 19 24 21 25 21 4 6 11 11 11 10 8 8 6 9 12 13 17 17 18 18 17 16 15 15 11 11 11 8 9 7 8 8 9 4 4
13 4 6 12 15 7 4 12 21 11 8 6 13 20 23 20 17 12 12 11 7 7 11 10 9 6 8 10 13 15 17 21 21 22 20 19 17 20 19 16 13 12 10 8 10 10 9 8 7
4 12 13 24 11 9 8 20 16 15 3 3 20 18 21 20 15 8 13 12 13 12 9 8 9 8 10 14 13 16 18 21 25 24 24 22 23 14 18 23 17 13 17 13 14 12 11 11 10
10 16 20 11 10 5 20 24 24 21 10 9 10 20 18 17 15 13 12 12 13 13 13 12 12 10 13 18 21 16 16 25 29 27 27 23 25 26 24 21 20 14 19 18 16 13 13 14 13
16 12 5 6 5 6 17 25 26 9 13 19 18 19 17 14 12 11 11 12 11 11 12 12 12 13 15 17 19 20 20 24 26 31 31 25 27 28 25 21 17 20 20 19 18 17 16 16 17
7 7 4 10 11 13 19 16 18 17 20 14 22 21 17 14 11 11 12 11 12 13 14 15 16 17 18 20 24 25 27 28 27 31 35 35 28 28 26 22 22 22 18 17 17 17 17 19 18
7 6 10 15 10 15 15 32 16 10 16 14 21 20 17 15 13 13 13 14 14 15 16 17 19 20 21 23 25 28 31 31 21 24 26 28 35 33 39 25 19 24 19 16 15 15 18 22 21
8 9 10 18 12 18 12 19 16 10 7 14 17 16 17 17 17 17 15 14 15 17 17 16 19 21 23 25 27 29 30 31 14 20 25 24 39 32 19 19 19 21 20 17 14 14 15 16 22
16 12 4 8 20 18 13 27 29 7 7 16 15 17 18 17 18 20 19 19 18 17 19 20 16 21 25 26 27 29 31 26 10 7 12 15 36 35 32 24 18 22 20 17 17 16 15 13 19
5 11 7 10 17 26 28 23 5 5 16 22 22 22 23 20 19 19 20 19 20 21 19 19 18 23 25 27 27 27 29 27 23 10 11 12 12 30 34 24 22 22 20 21 20 20 18 17 18
17 17 19 14 23 11 14 25 10 7 16 26 25 21 24 25 24 24 24 22 21 22 22 21 20 23 23 24 24 25 25 26 26 16 14 22 23 24 18 19 21 20 22 21 23 22 22 21 22
Wind_Direction
64 78 43 42 47 33 12 21 14 19 5 13 344 28 13 13 29 44 87 87 88 87 76 87 93 97 100 104 105 100 99 96 79 63 53 44 39 44 43 46 54 52 71 78 94 100 97 92 72
61 57 49 26 10 45 27 357 14 9 25 16 4 12 286 26 32 91 86 97 96 98 90 79 76 84 92 102 102 97 90 90 63 48 40 24 35 41 42 36 53 40 46 43 90 123 142 112 38
53 25 72 42 18 11 345 22 19 10 26 1 44 3 6 9 26 55 91 120 140 115 98 87 68 72 66 71 82 87 87 65 35 28 26 27 39 35 50 63 50 38 32 58 81 106 124 134 120
38 21 30 24 63 12 350 43 314 26 13 350 355 3 351 359 14 33 118 137 152 202 144 91 85 77 73 49 31 33 58 65 42 20 28 29 34 29 38 63 58 54 59 68 75 93 125 108 126
41 90 44 34 332 51 353 18 14 4 359 338 11 12 15 16 4 14 82 126 173 192 194 218 123 106 73 39 15 343 14 54 20 19 21 26 39 35 52 66 33 56 80 81 88 88 126 144 124
352 70 35 321 252 351 14 58 131 351 346 337 330 18 20 14 11 10 23 60 141 195 196 197 212 184 147 43 9 346 357 38 7 28 12 2 43 65 63 73 65 68 78 87 98 88 110 130 126
93 72 69 334 339 349 336 58 355 355 353 320 29 333 354 350 355 356 13 4 61 309 247 232 212 203 222 5 7 12 68 76 34 43 317 350 8 156 142 134 105 87 86 78 80 90 100 112 115
89 80 165 191 296 47 43 39 31 49 16 345 269 289 335 338 335 345 3 347 340 332 305 272 244 201 214 277 358 5 354 188 53 11 281 285 265 246 304 183 125 16 19 93 80 81 71 107 100
103 94 228 151 356 35 35 10 354 28 96 342 355 43 22 329 329 315 329 326 321 345 346 301 283 245 257 255 356 356 338 269 287 308 276 298 302 284 28 128 113 82 102 105 88 61 173 115 111
71 99 311 110 337 40 20 37 338 357 11 22 7 13 5 330 319 313 306 315 291 270 239 253 267 273 287 261 277 326 316 300 290 311 218 318 322 302 51 107 110 143 86 81 98 156 252 155 130
240 76 199 94 43 24 56 2 340 339 2 2 24 15 6 338 303 303 307 295 289 279 247 234 244 252 252 258 232 273 316 316 301 309 304 324 340 334 80 77 94 170 102 82 116 178 218 175 128
112 32 81 25 28 30 23 44 8 341 4 0 12 10 1 353 333 295 301 303 282 274 263 259 249 255 253 247 235 249 238 247 257 284 20 346 352 16 82 80 39 63 33 156 152 183 198 216 137
121 255 21 337 0 356 11 11 15 2 350 353 358 358 356 359 358 308 277 297 271 271 275 269 259 257 250 244 237 235 249 246 268 267 297 62 319 348 268 21 53 42 211 247 173 137 207 227 246
225 162 269 298 278 310 9 13 1 332 342 341 342 345 353 357 9 354 290 278 293 288 287 281 277 272 265 249 239 229 245 228 268 277 276 316 309 314 331 297 335 21 201 218 193 134 141 196 239
160 96 28 343 294 315 21 337 283 325 330 342 339 341 337 341 345 360 333 305 283 292 288 280 265 265 271 274 242 243 243 248 270 302 279 287 274 281 292 312 259 103 82 159 188 171 162 143 76
79 75 343 226 299 323 349 311 324 317 332 331 352 338 327 327 334 281 359 319 301 297 290 280 268 261 263 264 257 255 255 262 261 269 283 298 290 293 302 335 327 242 34 182 179 178 174 148 131
338 321 202 284 310 309 2 347 314 327 321 340 337 358 355 347 341 319 327 327 311 305 308 285 260 263 257 249 268 265 252 252 260 262 270 270 281 270 282 294 339 5 14 15 59 39 337 306 132
241 129 290 272 269 297 55 299 309 326 320 332 343 352 330 22 351 346 328 331 343 350 312 297 259 257 263 264 263 268 261 259 258 243 246 264 258 264 283 299 304 310 321 358 10 5 4 4 79
221 206 232 283 281 314 167 258 289 313 324 331 356 1 344 343 357 340 311 337 315 2 292 350 294 261 256 258 271 254 259 261 261 255 237 245 263 278 280 309 293 305 313 321 311 317 315 346 1
256 243 295 292 292 283 82 253 266 309 320 328 340 337 349 342 340 347 325 353 13 346 352 356 310 290 288 284 281 274 260 259 259 256 249 243 251 273 283 277 274 285 283 281 274 275 297 291 315
218 246 262 245 270 283 292 247 256 225 192 310 321 329 343 348 343 358 353 358 4 357 0 359 354 318 298 297 292 283 270 262 255 253 250 252 244 250 253 247 246 267 265 271 275 278 282 288 295
176 256 239 253 261 271 241 272 284 260 156 19 322 341 341 348 341 341 342 345 334 342 345 6 354 328 299 303 288 274 276 267 260 250 245 241 246 242 243 254 250 257 258 264 275 261 273 280 289
225 263 250 253 260 257 249 259 275 342 263 338 335 335 353 347 354 348 346 342 336 333 337 342 343 349 341 338 344 305 270 266 262 256 252 244 248 247 245 246 246 248 263 269 275 269 268 269 273
247 240 252 274 261 264 295 301 316 338 344 341 338 336 348 350 352 5 5 3 359 348 337 332 332 334 335 335 334 339 316 294 272 256 242 237 236 250 254 255 260 255 256 265 268 267 271 270 268
231 171 304 277 265 252 263 285 295 313 328 338 331 335 335 340 353 354 5 4 7 2 355 352 348 343 337 330 329 333 332 316 290 266 262 255 241 238 244 241 249 254 256 258 258 266 268 261 260
262 231 266 286 274 323 321 249 217 349 336 309 323 325 321 327 344 351 356 359 356 354 351 353 355 350 346 342 337 336 330 322 288 259 244 260 232 240 232 231 236 252 256 256 262 274 283 265 259
203 240 294 274 292 280 214 252 162 163 294 303 316 316 311 319 334 338 338 340 341 344 346 337 343 345 344 341 339 341 339 327 270 242 231 239 222 227 224 231 212 244 249 250 261 275 290 270 256
224 238 245 274 261 265 267 243 254 26 319 311 315 312 308 313 325 332 334 335 336 339 339 344 338 343 342 338 336 343 347 343 231 248 242 245 224 232 223 234 237 240 249 250 250 266 279 278 264
252 209 265 264 256 251 255 300 204 1 330 319 321 314 305 309 316 330 334 334 334 338 341 337 324 331 335 335 335 343 347 359 345 245 222 216 223 229 216 217 233 240 251 256 255 253 263 265 268
186 233 236 234 239 337 311 306 321 335 305 305 310 307 304 310 319 329 330 332 333 338 340 340 336 328 333 332 336 339 348 359 357 357 248 191 200 210 206 219 238 247 256 257 249 252 255 257 259